sat.trackr.live / text

‹ back to catalog

STARLINK-31470

NORAD 59569 · 2024-076F

PAYLOAD ACTIVE UNKNOWN

§ Identity

Operator
Country
US
Launch date
2024-04-23
Launch site
AFETR
Launch vehicle
Mass (kg)
RCS (m²)

Purposes: comms

External: N2YO · Heavens-Above · Gunter

§ Orbital elements

Epoch: 2026-09-21T06:30:02.813760Z

Period
94.27 min
Inclination
43.0041°
Eccentricity
0.0001222
Mean motion
15.27576010 rev/d
Perigee alt
482.2 km
Apogee alt
483.9 km
Semi-major
6,861.2 km
B*
2.7248e-5
RAAN
341.0589°
Arg perigee
267.6590°
Mean anomaly
92.4122°
Rev number
13,636

§ Raw data

STARLINK-314701 59569U 24076F   26264.27086590  .00000488  00000+0  27248-4 0  99962 59569  43.0041 341.0589 0001222 267.6590  92.4122 15.27576010136363

JSON: /api/v1/satellites/59569 · /tle

For live sub-satellite position, see the globe view (requires WebGL).

§ Visibility from observer

Set your observer location to see the next 7 days of passes ≥ 10°. The values pass through the URL so the page stays shareable.

No JS? Fill the form by hand. The geolocation button needs JavaScript.